{"data":{"norad_id":65696,"epoch":"2026-05-25T00:00:07.248096Z","epoch_age_seconds":65121,"freshness":"FRESH","line1":"1 65696U 25212W   26145.00008389  .00010592  00000+0  35246-3 0  9999","line2":"2 65696  53.1601 350.7469 0001252  87.1232 272.9912 15.31711910 38931","mean_motion":15.3171191,"eccentricity":0.0001252,"inclination_deg":53.1601,"raan_deg":350.7469,"arg_perigee_deg":87.1232,"mean_anomaly_deg":272.9912,"bstar":0.00035246,"rev_number":3893,"period_min":94.012456950864,"perigee_km":469.8470174106,"apogee_km":471.56196732029,"semimajor_km":6848.8414923654,"source":"CELESTRAK","updated_at":"2026-05-25T13:38:20.898004Z"}}